CW4621 Weather Reports


time (UTC)temp
C
wind
direction
speed
KPH
gust
KPH
rain 1hr
cm
rain 24hr
cm
rain mn
cm
humidity
%
barometer
mb
20260510190104 25 105 1.6 4.8 0.00 0.03 0.00 45 1011.8
20260510185605 25 177 1.6 4.8 0.00 0.03 0.00 44 1011.9
20260510185105 25 284 1.6 9.7 0.00 0.03 0.00 43 1011.9
20260510184605 26 345 3.2 9.7 0.00 0.03 0.00 42 1011.8
20260510184104 26 133 3.2 8.0 0.00 0.03 0.00 43 1011.8
20260510183604 26 272 1.6 4.8 0.00 0.03 0.00 42 1011.8
20260510183105 26 119 3.2 9.7 0.00 0.03 0.00 42 1011.8
20260510182604 26 359 4.8 14.5 0.00 0.03 0.00 41 1011.7
20260510182104 27 120 3.2 9.7 0.00 0.03 0.00 42 1011.8
20260510181604 27 294 3.2 8.0 0.00 0.03 0.00 41 1011.8
20260510181104 27 28 3.2 11.3 0.00 0.03 0.00 40 1011.8
20260510180605 27 319 3.2 11.3 0.00 0.03 0.00 40 1011.9
20260510175606 27 174 4.8 11.3 0.00 0.03 0.00 41 1012.0
20260510175105 26 150 3.2 9.7 0.00 0.03 0.00 43 1011.9
20260510174605 27 316 3.2 11.3 0.00 0.03 0.00 43 1012.0
20260510174105 27 273 3.2 11.3 0.00 0.03 0.00 42 1011.9
20260510173604 27 179 1.6 8.0 0.00 0.03 0.00 43 1011.8
20260510173104 26 89 1.6 9.7 0.00 0.03 0.00 44 1011.8
20260510172605 26 301 3.2 8.0 0.00 0.03 0.00 43 1011.9
20260510172105 26 324 3.2 4.8 0.00 0.03 0.00 44 1011.8
20260510171605 26 15 1.6 11.3 0.00 0.03 0.00 45 1011.9
20260510171104 26 138 1.6 8.0 0.00 0.03 0.00 45 1011.9
20260510170605 26 186 1.6 9.7 0.00 0.03 0.00 46 1012.1
20260510165604 26 170 3.2 9.7 0.00 0.03 0.00 46 1012.1
20260510165105 26 150 3.2 4.8 0.00 0.03 0.00 45 1012.1
20260510164606 25 165 4.8 11.3 0.00 0.03 0.00 47 1012.2
20260510164105 25 197 3.2 8.0 0.00 0.03 0.00 46 1012.1
20260510163605 25 239 3.2 12.9 0.00 0.03 0.00 48 1012.2
20260510163105 25 158 3.2 4.8 0.00 0.03 0.00 48 1012.1
20260510162604 25 120 3.2 8.0 0.00 0.03 0.00 49 1012.1
20260510162104 25 18 1.6 4.8 0.00 0.03 0.00 51 1012.1
20260510161604 24 335 1.6 4.8 0.00 0.03 0.00 50 1012.1
20260510161105 24 123 1.6 4.8 0.00 0.03 0.00 52 1012.1
20260510160605 23 173 3.2 4.8 0.00 0.03 0.00 50 1012.1
20260510155605 23 332 1.6 4.8 0.00 0.03 0.00 48 1012.2
20260510154605 23 130 0.0 3.2 0.00 0.03 0.00 53 1012.4
20260510154105 22 337 1.6 9.7 0.00 0.03 0.00 54 1012.5
20260510153605 22 326 3.2 12.9 0.00 0.03 0.00 54 1012.5
20260510153105 23 282 3.2 8.0 0.00 0.03 0.00 54 1012.6
20260510152604 23 327 0.0 4.8 0.00 0.03 0.00 56 1012.6
20260510152104 22 308 0.0 4.8 0.00 0.03 0.00 59 1012.5
20260510151605 22 196 1.6 8.0 0.00 0.03 0.00 64 1012.5
20260510151105 22 172 1.6 4.8 0.00 0.03 0.00 68 1012.5
20260510150105 21 153 1.6 9.7 0.00 0.03 0.00 68 1012.5
20260510145605 21 143 3.2 9.7 0.00 0.03 0.00 68 1012.5
20260510145106 20 335 3.2 4.8 0.00 0.03 0.00 70 1012.6
20260510144605 20 155 3.2 4.8 0.00 0.03 0.00 69 1012.6
20260510144104 20 140 0.0 4.8 0.00 0.03 0.00 73 1012.5
20260510143605 20 158 1.6 3.2 0.00 0.03 0.00 73 1012.6
20260510143105 19 139 1.6 3.2 0.00 0.03 0.00 75 1012.6
20260510142604 19 348 1.6 4.8 0.00 0.03 0.00 73 1012.6
20260510141604 18 198 0.0 4.8 0.00 0.03 0.00 76 1012.7
20260510141104 18 190 3.2 4.8 0.00 0.03 0.00 76 1012.7
20260510140605 18 155 0.0 3.2 0.00 0.03 0.00 78 1012.7
20260510140105 17 331 1.6 3.2 0.00 0.03 0.00 79 1012.6
20260510135605 17 146 0.0 3.2 0.00 0.03 0.00 83 1012.6
20260510135105 16 118 1.6 3.2 0.00 0.03 0.00 84 1012.6
20260510134605 16 158 1.6 4.8 0.00 0.03 0.00 87 1012.5
20260510134104 15 147 1.6 3.2 0.00 0.03 0.00 89 1012.6
20260510133604 15 342 1.6 3.2 0.00 0.03 0.00 91 1012.6
20260510133104 15 356 0.0 3.2 0.00 0.03 0.00 93 1012.6
20260510132605 15 183 0.0 0.0 0.00 0.03 0.00 94 1012.7
20260510132105 14 183 0.0 0.0 0.00 0.03 0.00 94 1012.8
20260510131605 13 182 1.6 3.2 0.00 0.03 0.00 93 1012.8
20260510131105 13 131 1.6 4.8 0.00 0.03 0.00 93 1012.8
20260510130605 13 170 1.6 3.2 0.00 0.03 0.00 94 1012.8
20260510130105 13 134 0.0 1.6 0.00 0.03 0.00 94 1012.7
20260510125604 12 138 0.0 3.2 0.00 0.03 0.00 94 1012.7
20260510125105 12 122 1.6 3.2 0.00 0.03 0.00 94 1012.6
20260510124604 12 130 0.0 1.6 0.00 0.03 0.00 94 1012.5
20260510124105 12 148 0.0 0.0 0.00 0.03 0.00 95 1012.5
20260510123105 12 224 0.0 1.6 0.00 0.03 0.00 94 1012.4
20260510122604 12 332 0.0 0.0 0.00 0.03 0.00 94 1012.5
20260510122104 12 350 1.6 3.2 0.00 0.03 0.00 94 1012.4
20260510121604 12 62 0.0 1.6 0.00 0.03 0.00 94 1012.1
20260510121104 12 60 0.0 1.6 0.00 0.03 0.00 94 1012.2
20260510120604 12 296 0.0 0.0 0.00 0.03 0.00 94 1012.3
20260510120105 11 296 0.0 1.6 0.00 0.03 0.00 94 1012.2
20260510115605 11 347 0.0 1.6 0.00 0.03 0.00 94 1012.1
20260510115104 11 2 1.6 1.6 0.00 0.03 0.00 94 1012.3
20260510114105 11 313 0.0 0.0 0.00 0.03 0.00 94 1012.1
20260510113105 11 316 0.0 1.6 0.00 0.03 0.00 94 1012.0
20260510112104 11 320 0.0 3.2 0.00 0.03 0.00 94 1011.8
20260510111605 11 353 0.0 1.6 0.00 0.03 0.00 94 1011.7
20260510111105 11 338 0.0 4.8 0.00 0.03 0.00 94 1011.6
20260510110604 11 320 1.6 4.8 0.00 0.03 0.00 94 1011.4
20260510110105 11 290 0.0 3.2 0.00 0.03 0.00 94 1011.4
20260510105605 11 82 0.0 1.6 0.00 0.03 0.00 94 1011.3
20260510105105 11 5 0.0 1.6 0.00 0.03 0.00 94 1011.3
20260510104605 11 13 0.0 1.6 0.00 0.03 0.00 94 1011.3
20260510104104 11 75 0.0 1.6 0.00 0.03 0.00 94 1011.1
20260510103604 11 74 0.0 1.6 0.00 0.03 0.00 94 1011.1
20260510103104 11 340 0.0 3.2 0.00 0.03 0.00 94 1011.1
20260510101605 11 296 0.0 3.2 0.00 0.03 0.00 94 1011.3
20260510101105 11 351 0.0 1.6 0.00 0.03 0.00 94 1011.2
20260510100606 11 335 0.0 3.2 0.00 0.03 0.00 94 1011.1
20260510100105 11 271 1.6 4.8 0.00 0.03 0.00 94 1011.2
20260510095605 11 329 0.0 1.6 0.00 0.03 0.00 94 1011.2
20260510095104 11 329 0.0 1.6 0.00 0.03 0.00 94 1011.1
20260510094604 11 330 0.0 1.6 0.00 0.03 0.00 94 1011.0
20260510093605 11 121 0.0 3.2 0.00 0.03 0.00 94 1010.8
20260510092605 10 245 1.6 4.8 0.00 0.03 0.00 94 1010.8
20260510092104 10 248 0.0 3.2 0.00 0.03 0.00 94 1010.6
20260510091604 10 177 0.0 1.6 0.00 0.03 0.00 94 1010.6
20260510091104 10 101 0.0 0.0 0.00 0.03 0.00 94 1010.2
20260510090604 10 101 0.0 1.6 0.00 0.03 0.00 94 1010.2
20260510090104 10 101 0.0 0.0 0.00 0.03 0.00 94 1010.2
20260510085604 10 101 0.0 1.6 0.00 0.03 0.00 94 1010.2
20260510085105 10 101 0.0 1.6 0.00 0.03 0.00 94 1010.2
20260510084605 10 102 0.0 0.0 0.00 0.03 0.00 93 1010.3
20260510084105 10 103 0.0 0.0 0.00 0.03 0.00 93 1010.2
20260510083104 10 102 0.0 0.0 0.00 0.03 0.00 93 1010.2
20260510082104 10 138 0.0 1.6 0.00 0.03 0.00 93 1010.2
20260510081105 10 49 0.0 0.0 0.00 0.03 0.00 93 1010.2
20260510080105 10 49 0.0 0.0 0.00 0.03 0.00 92 1010.0
20260510075104 10 49 0.0 0.0 0.00 0.03 0.00 93 1010.0
20260510074605 10 49 0.0 1.6 0.00 0.03 0.00 93 1009.9
20260510073104 10 65 0.0 0.0 0.00 0.03 0.00 92 1009.5
20260510072605 10 65 0.0 0.0 0.00 0.03 0.00 92 1009.4
20260510071605 10 65 0.0 0.0 0.00 0.03 0.00 92 1009.4
20260510071104 10 65 0.0 0.0 0.00 0.03 0.00 92 1009.4
20260510070604 10 65 0.0 0.0 0.00 0.03 0.00 91 1009.4
20260510070104 10 65 0.0 0.0 0.00 0.03 0.00 91 1009.5
20260510065604 10 65 0.0 0.0 0.00 0.03 0.00 90 1009.5
20260510065104 10 65 0.0 0.0 0.00 0.03 0.00 90 1009.5
20260510064605 10 65 0.0 0.0 0.00 0.03 0.00 90 1009.6
20260510064105 10 65 0.0 0.0 0.00 0.03 0.00 90 1009.6
20260510063605 10 65 0.0 0.0 0.00 0.03 0.00 90 1009.5
20260510063104 10 65 0.0 0.0 0.00 0.03 0.00 90 1009.6
20260510062604 10 65 0.0 0.0 0.00 0.03 0.00 90 1009.7
20260510062104 10 65 0.0 0.0 0.00 0.03 0.00 89 1009.7
20260510061604 10 65 0.0 0.0 0.00 0.03 0.00 88 1009.7
20260510061104 10 65 0.0 0.0 0.00 0.03 0.00 88 1009.6
20260510060604 10 65 0.0 0.0 0.00 0.03 0.00 88 1009.7
20260510060104 10 65 0.0 0.0 0.00 0.03 0.00 87 1009.7
20260510055604 10 65 0.0 0.0 0.00 0.03 0.00 87 1009.8
20260510055104 10 65 0.0 0.0 0.00 0.03 0.00 87 1009.8
20260510054605 10 65 0.0 0.0 0.00 0.03 0.00 87 1009.9
20260510054105 10 65 0.0 0.0 0.00 0.03 0.00 87 1009.9
20260510053605 10 65 0.0 0.0 0.00 0.03 0.00 87 1010.0
20260510053105 10 65 0.0 0.0 0.00 0.03 0.00 87 1010.0
20260510052104 10 65 0.0 0.0 0.00 0.03 0.00 87 1010.0
20260510051604 10 65 0.0 0.0 0.00 0.03 0.00 86 1010.1
20260510051105 10 65 0.0 0.0 0.00 0.03 0.00 85 1010.0
20260510050105 10 65 0.0 0.0 0.00 0.03 0.00 84 1010.1
20260510045605 10 65 0.0 0.0 0.00 0.03 0.00 83 1010.2
20260510045105 10 65 0.0 0.0 0.00 0.03 0.00 83 1010.2
20260510044605 11 65 0.0 0.0 0.00 0.03 0.00 83 1010.2
20260510043604 11 65 0.0 0.0 0.00 0.03 0.00 83 1010.3
20260510043105 11 65 0.0 0.0 0.00 0.03 0.00 83 1010.3
20260510042605 11 65 0.0 0.0 0.00 0.03 0.00 83 1010.3
20260510041605 11 65 0.0 0.0 0.00 0.03 0.00 83 1010.3
20260510041105 11 65 0.0 0.0 0.00 0.03 0.00 83 1010.3
20260510040605 11 65 0.0 0.0 0.00 0.03 0.00 83 1010.3
20260510040105 11 65 0.0 1.6 0.00 0.03 0.00 83 1010.3
20260510035604 11 65 0.0 0.0 0.00 0.03 0.03 83 1010.4
20260510035104 11 65 0.0 0.0 0.00 0.03 0.03 83 1010.3
20260510034105 12 75 0.0 1.6 0.00 0.03 0.03 83 1010.2
20260510033105 12 70 0.0 1.6 0.00 0.03 0.03 83 1009.9
20260510031605 11 70 0.0 1.6 0.00 0.03 0.03 81 1009.9
20260510031105 11 70 0.0 1.6 0.00 0.03 0.03 81 1009.9
20260510030604 11 70 0.0 0.0 0.00 0.03 0.03 81 1009.8
20260510030104 12 70 0.0 0.0 0.00 0.03 0.03 81 1009.8
20260510025605 12 70 0.0 3.2 0.00 0.03 0.03 81 1009.7
20260510025105 12 67 0.0 0.0 0.00 0.03 0.03 81 1009.7
20260510024605 12 61 0.0 1.6 0.00 0.03 0.03 81 1009.8
20260510024105 12 61 0.0 0.0 0.00 0.03 0.03 81 1009.9
20260510023604 12 61 0.0 0.0 0.00 0.03 0.03 80 1009.9
20260510023104 12 61 0.0 1.6 0.00 0.03 0.03 81 1009.8
20260510022605 12 61 0.0 1.6 0.00 0.03 0.03 80 1009.8
20260510022104 12 61 0.0 0.0 0.00 0.03 0.03 80 1009.8
20260510021604 12 61 0.0 1.6 0.00 0.03 0.03 81 1009.8
20260510021104 12 61 0.0 1.6 0.00 0.03 0.03 81 1009.8
20260510020605 12 56 0.0 1.6 0.00 0.03 0.03 80 1009.8
20260510020104 12 24 0.0 0.0 0.00 0.03 0.03 80 1009.8
20260510015604 12 23 0.0 1.6 0.00 0.03 0.03 80 1009.7
20260510015105 12 20 0.0 0.0 0.00 0.03 0.03 80 1009.7
20260510014605 12 20 0.0 0.0 0.00 0.03 0.03 80 1009.8
20260510013605 12 20 0.0 0.0 0.00 0.03 0.03 79 1009.7
20260510013105 12 20 0.0 0.0 0.00 0.03 0.03 79 1009.8
20260510012605 12 20 0.0 0.0 0.00 0.03 0.03 78 1009.7
20260510011606 12 20 0.0 0.0 0.00 0.03 0.03 78 1009.6
20260510010604 12 20 0.0 0.0 0.00 0.03 0.03 77 1009.5
20260510005605 12 20 0.0 0.0 0.00 0.03 0.03 77 1009.5
20260510005105 12 20 0.0 0.0 0.00 0.03 0.03 77 1009.5
20260510004104 13 20 0.0 0.0 0.00 0.03 0.03 76 1009.5
20260510003606 13 20 0.0 0.0 0.00 0.03 0.03 76 1009.5
20260510002606 13 19 0.0 0.0 0.00 0.03 0.03 76 1009.5
20260510002104 13 19 0.0 0.0 0.00 0.03 0.03 75 1009.5
20260510001605 13 19 0.0 0.0 0.00 0.03 0.03 75 1009.5
20260510001105 13 19 0.0 0.0 0.00 0.03 0.03 74 1009.5
20260510000605 14 19 0.0 0.0 0.00 0.03 0.03 74 1009.4
20260510000104 14 19 0.0 0.0 0.00 0.03 0.03 74 1009.5
20260509235604 15 19 0.0 0.0 0.00 0.03 0.03 74 1009.5
20260509235105 15 20 0.0 1.6 0.00 0.03 0.03 73 1009.5
20260509234605 15 20 0.0 1.6 0.00 0.03 0.03 73 1009.4
20260509234105 15 8 0.0 1.6 0.00 0.03 0.03 73 1009.4
20260509233605 15 4 0.0 1.6 0.00 0.03 0.03 72 1009.3
20260509233104 15 4 0.0 1.6 0.00 0.03 0.03 72 1009.2
20260509232105 15 74 0.0 4.8 0.00 0.03 0.03 72 1009.1
20260509231605 15 68 0.0 4.8 0.00 0.03 0.03 72 1009.0
20260509231105 15 71 0.0 3.2 0.00 0.03 0.03 72 1008.9
20260509230604 15 22 0.0 4.8 0.00 0.03 0.03 72 1009.0
20260509230105 15 7 0.0 1.6 0.00 0.03 0.03 72 1009.1
20260509225605 15 5 0.0 1.6 0.00 0.03 0.03 71 1009.1
20260509225104 15 5 1.6 3.2 0.00 0.03 0.03 71 1009.2
20260509224104 16 314 0.0 4.8 0.00 0.03 0.03 70 1009.2
20260509223604 16 23 0.0 1.6 0.00 0.03 0.03 70 1009.2
20260509223105 16 358 1.6 4.8 0.00 0.03 0.03 70 1009.1
20260509222605 16 357 0.0 3.2 0.00 0.03 0.03 70 1009.2
20260509222105 16 6 1.6 4.8 0.00 0.03 0.03 70 1009.1
20260509221605 16 4 0.0 1.6 0.00 0.03 0.03 70 1009.2
20260509221105 16 26 0.0 1.6 0.00 0.03 0.03 69 1009.3
20260509220606 16 353 0.0 3.2 0.00 0.03 0.03 69 1009.3
20260509220105 16 49 1.6 4.8 0.00 0.03 0.03 69 1009.4
20260509215605 16 357 0.0 3.2 0.00 0.03 0.03 68 1009.5
20260509214604 16 314 1.6 3.2 0.00 0.03 0.03 67 1009.5
20260509214105 16 9 0.0 3.2 0.00 0.03 0.03 66 1009.4
20260509213605 16 357 0.0 3.2 0.00 0.03 0.03 66 1009.4
20260509213105 16 350 1.6 4.8 0.00 0.03 0.03 66 1009.5
20260509212604 17 313 0.0 4.8 0.00 0.03 0.03 66 1009.6
20260509211604 17 284 1.6 3.2 0.00 0.03 0.03 66 1009.6
20260509211105 17 356 1.6 8.0 0.00 0.03 0.03 65 1009.6
20260509210605 17 341 1.6 4.8 0.00 0.03 0.03 65 1009.5
20260509210104 17 15 3.2 4.8 0.00 0.03 0.03 63 1009.3
20260509205605 17 280 1.6 4.8 0.00 0.03 0.03 65 1009.2
20260509205105 17 353 0.0 4.8 0.00 0.03 0.03 65 1009.3
20260509204605 17 316 3.2 8.0 0.00 0.03 0.03 64 1009.4
20260509204105 17 290 3.2 4.8 0.00 0.03 0.03 64 1009.4
20260509203604 17 155 1.6 3.2 0.00 0.03 0.03 65 1009.4
20260509203104 17 323 1.6 4.8 0.00 0.03 0.03 64 1009.2
20260509202605 17 343 0.0 3.2 0.00 0.03 0.03 65 1009.1
20260509201604 17 47 1.6 3.2 0.03 0.03 0.03 64 1009.2
20260509200605 17 270 3.2 4.8 0.03 0.03 0.03 65 1009.2
20260509200104 17 93 1.6 8.0 0.03 0.03 0.03 65 1009.2
20260509195604 17 327 0.0 3.2 0.03 0.03 0.03 66 1009.2
20260509195104 16 320 4.8 11.3 0.03 0.03 0.03 65 1009.2
20260509194604 17 325 3.2 11.3 0.03 0.03 0.03 65 1009.3
20260509194104 17 320 1.6 4.8 0.03 0.03 0.03 67 1009.2
20260509193604 17 295 1.6 4.8 0.03 0.03 0.03 67 1009.2
20260509193105 17 318 0.0 9.7 0.03 0.03 0.03 69 1009.1
20260509192604 17 329 1.6 8.0 0.03 0.03 0.03 68 1009.3
20260509192104 17 69 1.6 4.8 0.03 0.03 0.03 68 1009.2
20260509191604 17 282 1.6 4.8 0.00 0.00 0.00 67 1009.3
20260509190605 17 356 0.0 3.2 0.00 0.00 0.00 69 1009.7